W2CJS Weather Reports


Display with metric or nautical units.
time (UTC)temp
F
wind
direction
speed
MPH
gust
MPH
rain 1hr
in
rain 24hr
in
rain mn
in
humidity
%
barometer
mb
20260503031003 32 0 0.0 0.0 0.00 0.11 0.11 86 1010.9
20260503030003 32 57 0.0 1.0 0.00 0.11 0.11 86 1010.9
20260503025003 33 57 0.0 2.0 0.00 0.11 0.11 85 1010.9
20260503024003 34 0 0.0 0.0 0.00 0.11 0.11 83 1010.9
20260503023003 34 0 0.0 0.0 0.00 0.11 0.11 82 1010.8
20260503022003 35 55 0.0 3.0 0.00 0.11 0.11 81 1011.0
20260503021003 36 0 0.0 0.0 0.00 0.11 0.11 79 1011.0
20260503020003 36 319 0.0 2.0 0.00 0.11 0.11 78 1011.0
20260503015024 37 182 0.0 1.0 0.00 0.11 0.11 77 1011.0
20260503014003 37 182 0.0 2.0 0.00 0.11 0.11 76 1011.0
20260503013003 38 208 1.0 4.0 0.00 0.11 0.11 75 1011.0
20260503012024 38 353 1.0 4.0 0.00 0.11 0.11 74 1011.0
20260503011003 38 341 0.0 3.0 0.00 0.11 0.11 72 1011.1
20260503010024 38 339 1.0 4.0 0.00 0.11 0.11 71 1011.0
20260503005003 39 359 1.0 4.0 0.00 0.11 0.11 69 1011.0
20260503004003 39 331 1.0 3.0 0.00 0.11 0.11 68 1010.8
20260503003024 39 356 1.0 4.0 0.00 0.11 0.11 67 1010.7
20260503002003 39 5 0.0 2.0 0.00 0.11 0.11 66 1010.6
20260503001003 39 0 0.0 0.0 0.00 0.11 0.11 67 1010.5
20260503000003 39 0 0.0 0.0 0.00 0.11 0.11 66 1010.4
20260502235003 39 0 0.0 0.0 0.00 0.11 0.11 63 1010.4
20260502234024 40 5 0.0 2.0 0.00 0.11 0.11 63 1010.4
20260502233003 40 5 0.0 2.0 0.00 0.11 0.11 62 1010.4
20260502232003 40 9 1.0 3.0 0.00 0.11 0.11 61 1010.3
20260502231003 40 64 1.0 4.0 0.00 0.11 0.11 61 1010.2
20260502230003 41 182 1.0 4.0 0.00 0.11 0.11 62 1010.2
20260502225024 41 182 1.0 3.0 0.00 0.11 0.11 58 1010.1
20260502224003 41 230 0.0 2.0 0.00 0.11 0.11 63 1010.1
20260502223003 40 229 1.0 3.0 0.00 0.11 0.11 62 1010.1
20260502222003 41 229 0.0 3.0 0.00 0.11 0.11 62 1010.2
20260502221003 41 243 0.0 3.0 0.00 0.11 0.11 64 1010.1
20260502220003 41 291 1.0 5.0 0.00 0.11 0.11 63 1010.2
20260502215003 40 231 3.0 8.0 0.00 0.11 0.11 65 1010.3
20260502214003 40 267 1.0 5.0 0.00 0.11 0.11 65 1010.4
20260502213003 40 68 1.0 4.0 0.00 0.11 0.11 66 1010.4
20260502212004 40 225 1.0 5.0 0.00 0.11 0.11 68 1010.4
20260502211003 40 223 3.0 7.0 0.00 0.11 0.11 68 1010.4
20260502210003 40 230 3.0 7.0 0.00 0.11 0.11 68 1010.4
20260502205003 40 242 3.0 7.0 0.00 0.11 0.11 69 1010.3
20260502204003 40 223 3.0 6.0 0.00 0.11 0.11 71 1010.4
20260502203003 40 226 2.0 9.0 0.00 0.11 0.11 72 1010.3
20260502202003 40 250 2.0 8.0 0.00 0.11 0.11 73 1010.3
20260502201003 40 254 2.0 6.0 0.00 0.11 0.11 72 1010.4
20260502200003 40 237 4.0 9.0 0.00 0.11 0.11 72 1010.5
20260502195003 40 240 3.0 7.0 0.00 0.11 0.11 73 1010.6
20260502194003 40 295 3.0 6.0 0.00 0.11 0.11 75 1010.4
20260502193003 40 244 3.0 8.0 0.00 0.11 0.11 75 1010.6
20260502192003 40 234 1.0 4.0 0.00 0.11 0.11 78 1010.6
20260502191003 39 236 2.0 5.0 0.00 0.11 0.11 79 1010.6
20260502190004 39 259 2.0 5.0 0.00 0.11 0.11 79 1010.7
20260502185003 39 229 4.0 11.0 0.00 0.11 0.11 78 1010.6
20260502184003 40 232 4.0 10.0 0.00 0.11 0.11 77 1010.4
20260502182003 40 229 3.0 6.0 0.00 0.11 0.11 76 1010.4
20260502181003 40 221 4.0 10.0 0.00 0.11 0.11 76 1010.4
20260502164003 39 237 3.0 6.0 0.00 0.11 0.11 81 1010.3
20260502163024 40 211 2.0 9.0 0.00 0.11 0.11 80 1010.3
20260502162003 40 248 3.0 9.0 0.01 0.11 0.11 80 1010.4
20260502161003 39 301 3.0 7.0 0.01 0.11 0.11 83 1010.4
20260502152003 40 228 5.0 16.0 0.00 0.10 0.10 81 1010.3
20260502151003 42 249 3.0 7.0 0.00 0.10 0.10 75 1010.0
20260502123003 38 225 1.0 3.0 0.00 0.10 0.10 90 1010.3
20260502122003 38 225 1.0 3.0 0.00 0.10 0.10 91 1010.4
20260502121003 38 224 0.0 3.0 0.00 0.10 0.10 92 1010.4
20260502115003 38 216 1.0 5.0 0.00 0.10 0.10 93 1010.5
20260502114003 37 128 1.0 4.0 0.00 0.10 0.10 93 1010.4
20260502113024 37 116 0.0 3.0 0.00 0.10 0.10 93 1010.4
20260502112003 37 41 0.0 2.0 0.00 0.10 0.10 93 1010.5
20260502111024 37 14 1.0 3.0 0.00 0.10 0.10 93 1010.5
20260502110024 37 62 0.0 4.0 0.00 0.10 0.10 93 1010.4
20260502105024 37 0 0.0 0.0 0.00 0.10 0.10 93 1010.3
20260502104003 37 0 0.0 0.0 0.00 0.10 0.10 93 1010.1
20260502103024 37 0 0.0 0.0 0.00 0.10 0.10 93 1010.1
20260502102024 37 0 0.0 0.0 0.00 0.10 0.10 93 1010.2
20260502101003 37 0 0.0 0.0 0.00 0.10 0.10 93 1010.1
20260502091003 36 0 0.0 0.0 0.01 0.10 0.10 92 1009.7
20260502071003 37 0 0.0 0.0 0.02 0.09 0.09 92 1009.8
20260502070004 37 0 0.0 0.0 0.02 0.09 0.09 91 1009.7
20260502065003 37 0 0.0 0.0 0.03 0.09 0.09 91 1009.7
20260502064003 37 0 0.0 0.0 0.02 0.08 0.08 91 1009.8
20260502063003 37 0 0.0 0.0 0.03 0.08 0.08 91 1009.8
20260502062004 37 0 0.0 0.0 0.03 0.07 0.07 90 1010.0
20260502061025 38 0 0.0 0.0 0.04 0.07 0.07 90 1010.0
20260502060003 38 0 0.0 0.0 0.05 0.07 0.07 90 1010.0
20260502055003 38 0 0.0 0.0 0.04 0.06 0.06 90 1010.0
20260502054003 38 0 0.0 0.0 0.05 0.06 0.06 89 1010.0
20260502053003 38 0 0.0 0.0 0.04 0.05 0.05 89 1010.0
20260502052025 39 0 0.0 0.0 0.03 0.04 0.04 90 1009.9
20260502051024 39 0 0.0 0.0 0.03 0.03 0.03 90 1010.0
20260502050003 39 0 0.0 0.0 0.02 0.02 0.02 89 1010.0
20260502045003 39 0 0.0 0.0 0.02 0.02 0.02 90 1010.0
20260502044003 39 0 0.0 0.0 0.01 0.01 0.01 90 1010.0
20260502043003 39 0 0.0 0.0 0.01 0.01 0.01 90 1010.0
20260502042003 39 0 0.0 0.0 0.01 0.01 0.01 89 1010.0
20260502041003 40 0 0.0 0.0 0.00 0.00 0.00 89 1010.0
20260502040004 40 0 0.0 0.0 0.00 0.00 0.00 88 1010.0
20260502035024 40 0 0.0 0.0 0.00 0.00 0.00 87 1010.1
20260502034024 40 0 0.0 0.0 0.00 0.00 0.00 87 1010.0
20260502033003 40 0 0.0 0.0 0.00 0.01 0.00 86 1010.1
20260502032003 40 0 0.0 0.0 0.00 0.01 0.00 84 1010.1